Tracking 19847 objects as of 17-Sep-2019
HD Live streaming from Space Station
objects crossing your sky now

OPS 7518 (NTS 1)

Track OPS 7518 (NTS 1) now!
10-day predictions
OPS 7518 (NTS 1) is classified as:


NORAD ID: 7369
Int'l Code: 1974-054A
Perigee: 13,470.5 km
Apogee: 13,763.9 km
Inclination: 125.2 °
Period: 468.7 minutes
Semi major axis: 19988 km
RCS: 0.8 m2 (medium)
Launch date: July 14, 1974
Source: United States (US)
Launch site: AIR FORCE WESTERN TEST RANGE (AFWTR)
aabbcc
Your satellite tracking list
Your tracking list is empty




NASA's NSSDC Master Catalog

Two Line Element Set (TLE):
1  7369U 74054A   19256.45673701 +.00000023 +00000-0 +00000-0 0  9996
2  7369 125.1567 340.7665 0073387 288.7456 120.0780 03.07214879506777
Source of the keplerian elements: AFSPC